Location: Recife
(8.0585°S, 34.8848°W)
Time: 09:53:47
(UTC-03:00)

Altair - Pass Details

Date: 16 April 2026
Orbit: 1501 x 1682 km, 47.2° (Epoch: 20 May)

Event Time Altitude Azimuth Distance (km) Brightness Sun altitude
Rises 20:22:35 0° 337° (NNW) 4,665 10.3 -46.4°
Reaches altitude 10° 20:25:53 10° 344° (NNW) 3,668 9.6 -47.2°
Enters shadow 20:27:13 15° 348° (NNW) 3,286 9.3 -47.5°
Maximum altitude 20:34:21 41° 51° (NE) 2,046 - -49.3°
Drops below altitude 10° 20:42:46 10° 118° (ESE) 3,657 - -51.3°
Sets 20:46:01 0° 125° (SE) 4,650 - -52.1°
